[[{"header":{"parameterUnit":"m.s-1","parameterCategory":1,"la1":30.2991,"la2":30.254,"lo1":-89.0895,"lo2":-89.0444,"dy":0.0017,"dx":0.0017,"nx":28,"ny":28,"refTime":"2024-12-31T03:00:00:Z","depth":0,"parameterNumber":2,"parameterNumberName":"U-component_of_WINDS"},"data":[0,0,0,0,0,0,0,0,0,0,0,0,0,0,0,0,0,0,0,0,0,0,0,0,0,0,0,0,0,0,0,0,0,0,0,0,0,0,0,0,0,0,0,0,0,0,0,0,0,0,0,0,0,0,0,0,0,0,-2.1071,-2.1072,0,-2.1104,-2.1104,-2.1104,-2.0997,-2.0993,-2.099,-2.0987,-2.1024,-2.1028,-2.1032,0,0,0,0,0,0,0,0,0,0,0,0,0,-2.092,-2.0923,-2.1071,-2.1072,-2.1072,-2.1104,-2.1104,-2.1104,-2.0997,-2.0993,-2.0989,-2.0986,-2.1023,-2.1028,-2.1032,0,0,0,0,0,0,0,0,0,0,0,0,0,-2.0973,-2.0924,-2.1071,-2.1022,-2.1018,-2.1103,-2.1104,-2.1105,-2.0998,-2.0993,-2.0988,-2.0984,-2.1021,-2.1027,-2.1033,-2.1168,0,0,-2.1052,-2.1054,0,0,0,0,0,0,0,0,-2.097,-2.0978,-2.1029,-2.1026,-2.1021,-2.1041,-2.1064,-2.1126,-2.0999,-2.1006,-2.0987,-2.0981,-2.1034,-2.1039,-2.1056,-2.117,-2.1172,-2.1052,-2.1056,-2.1058,-2.106,0,0,0,0,0,0,0,-2.0966,-2.0976,-2.1084,-2.103,-2.1025,-2.1,-2.1002,-2.1075,-2.1047,-2.1005,-2.0997,-2.1002,-2.1031,-2.105,-2.1056,-2.1172,-2.1052,-2.1057,-2.1061,-2.1063,-2.14,-2.1405,0,0,0,0,0,0,-2.0968,-2.0974,-2.1083,-2.1085,-2.0983,-2.1006,-2.1009,-2.104,-2.1046,-2.1042,-2.1006,-2.0997,-2.1042,-2.1049,-2.1057,-2.1216,-2.1058,-2.1064,-2.1067,-2.1394,-2.1401,-2.1407,0,0,0,0,0,0,-2.0966,-2.0979,-2.1082,-2.1027,-2.1038,-2.1014,-2.105,-2.1043,-2.1062,-2.1047,-2.1042,-2.1031,-2.1038,-2.1048,-2.1141,-2.1216,-2.1067,-2.1072,-2.1388,-2.1396,-2.1404,-2.1537,0,0,0,0,0,0,-2.0962,-2.0979,-2.1029,-2.1029,-2.1042,-2.1166,-2.1054,-2.1047,-2.1072,-2.106,-2.1069,-2.1065,-2.1035,-2.1133,-2.1147,-2.1222,-2.1077,-2.1381,-2.1392,-2.1401,-2.1525,-2.1548,-2.1567,0,0,0,0,0,-2.0957,-2.1066,-2.1032,-2.1046,-2.1104,-2.117,-2.1177,-2.1139,-2.1078,-2.113,-2.112,-2.1065,-2.1205,-2.1143,-2.1159,-2.1236,-2.1377,-2.1389,-2.14,-2.1516,-2.1544,-2.1567,0,0,0,0,0,0,-2.1078,-2.1065,-2.1028,-2.114,-2.1157,-2.1152,-2.1215,-2.117,-2.1205,-2.1193,-2.1145,-2.1148,-2.125,-2.1252,-2.1183,-2.1367,-2.128,-2.1296,-2.1363,-2.1389,-2.141,-2.1408,-2.1082,0,0,0,0,0,-2.1117,-2.117,-2.1157,-2.1258,-2.1268,-2.124,-2.1267,-2.1236,-2.1252,-2.1259,-2.1256,-2.1275,-2.1322,-2.1355,-2.1399,-2.1524,-2.1525,-2.1585,-2.1606,-2.1623,-2.1638,-2.1706,-2.1732,-2.1446,-2.1446,-2.1445,0,0,-2.12,-2.1199,-2.1236,-2.1282,-2.1291,-2.1349,-2.1247,-2.1312,-2.1355,-2.1269,-2.1357,-2.1356,-2.1373,-2.1483,-2.1532,-2.1488,-2.1717,-2.1638,-2.1652,-2.1658,-2.1721,-2.1748,-2.1772,-2.1454,-2.1452,-2.1451,0,0,-2.138,-2.1385,-2.1469,-2.148,-2.1495,-2.1475,-2.1496,-2.1497,-2.1493,-2.158,-2.1517,-2.1567,-2.165,-2.1666,-2.1684,-2.1869,-2.1821,-2.1884,-2.1996,-2.2062,-2.2084,-2.2104,-2.2172,-2.2197,-2.1899,-2.1899,-2.1899,0,-2.1482,-2.1565,-2.1519,-2.1589,-2.1611,-2.1534,-2.1621,-2.1633,-2.1662,-2.168,-2.163,-2.1733,-2.1739,-2.1852,-2.1897,-2.1914,-2.1937,-2.1885,-2.2084,-2.2104,-2.2122,-2.2186,-2.2212,-2.1907,-2.1906,-2.1905,-2.1905,0,-2.169,-2.1748,-2.1815,-2.1844,-2.1873,-2.1951,-2.1918,-2.1953,-2.1919,-2.1906,-2.1996,-2.2,-2.2043,-2.2067,-2.2035,-2.2176,-2.2148,-2.2092,-2.2004,-2.2158,-2.2217,-2.2241,-2.1918,-2.1915,-2.1913,-2.1911,0,0,-2.195,-2.1951,-2.1976,-2.1988,-2.1998,-2.2043,-2.2117,-2.2158,-2.219,-2.2212,-2.2274,-2.2345,-2.2293,-2.2314,-2.2283,-2.2341,-2.2489,-2.2277,-2.2277,-2.2319,-2.2647,-2.2691,-2.272,-2.2456,-2.246,-2.2464,-2.2646,0,-2.2129,-2.2255,-2.2216,-2.2344,-2.2398,-2.2325,-2.2389,-2.2403,-2.2392,-2.2437,-2.2425,-2.2477,-2.2403,-2.2416,-2.2469,-2.246,-2.2555,-2.2446,-2.2515,-2.2518,-2.2516,-2.2751,-2.2797,-2.2969,-2.2669,-2.2672,-2.2675,0,-2.2356,-2.2385,-2.2518,-2.2519,-2.254,-2.2599,-2.2633,-2.2676,-2.269,-2.2678,-2.2701,-2.2658,-2.2731,-2.2641,-2.2743,-2.267,-2.2695,-2.2695,-2.27,-2.2708,-2.2608,-2.2767,-2.3023,-2.305,-2.2711,-2.2708,-2.2706,0,-2.2535,-2.2608,-2.2697,-2.2709,-2.2711,-2.2755,-2.2758,-2.2766,-2.2793,-2.2823,-2.284,-2.2879,-2.2901,-2.2932,-2.2901,-2.2837,-2.3008,-2.2915,-2.3002,-2.3003,-2.3043,-2.3042,-2.331,-2.3056,-2.3055,-2.3055,-2.3054,0,-2.2741,-2.2826,-2.2777,-2.2833,-2.2926,-2.2879,-2.2973,-2.2968,-2.2976,-2.303,-2.2968,-2.3021,-2.2974,-2.3022,-2.2998,-2.3087,-2.3097,-2.309,-2.3083,-2.3097,-2.3098,-2.3115,-2.3104,-2.3062,-2.306,-2.3059,-2.3058,0,-2.2958,-2.2929,-2.3021,-2.3015,-2.3015,-2.3085,-2.308,-2.3131,-2.3114,-2.3183,-2.3197,-2.3172,-2.3225,-2.3195,-2.3251,-2.3234,-2.335,-2.3325,-2.3346,-2.334,-2.3429,-2.3422,-2.372,-2.3758,-2.3477,-2.348,-2.3482,0,-2.3093,-2.3156,-2.3156,-2.3187,-2.3194,-2.3244,-2.3271,-2.3227,-2.3258,-2.3278,-2.3328,-2.3375,-2.3411,-2.35,-2.3487,-2.3529,-2.3507,-2.3608,-2.3513,-2.3525,-2.3511,-2.3509,-2.3516,-2.3629,-2.3632,-2.3635,-2.3637,0,-2.3335,-2.3317,-2.3357,-2.3393,-2.3427,-2.3453,-2.3474,-2.3503,-2.3459,-2.3497,-2.355,-2.3578,-2.3633,-2.3682,-2.3718,-2.3722,-2.3674,-2.3666,-2.3689,-2.3705,-2.3715,-2.3713,-2.34,-2.366,-2.3658,-2.3656,-2.3655,-2.3654,-2.3517,-2.357,-2.3578,-2.3625,-2.3636,-2.3657,-2.3705,-2.3694,-2.3737,-2.3778,-2.3749,-2.3813,-2.3824,-2.3867,-2.3877,-2.3927,-2.3886,-2.3919,-2.3927,-2.3937,-2.395,-2.3705,-2.3933,-2.3932,-2.3931,-2.3931,-2.393,0,-2.3758,-2.3759,-2.3803,-2.3834,-2.3871,-2.3819,-2.3839,-2.3875,-2.3931,-2.3945,-2.3981,-2.4043,-2.4089,-2.4079,-2.4122,-2.4163,-2.4142,-2.4176,-2.4174,-2.4176,-2.3983,-2.396,-2.4193,-2.4193,-2.4193,-2.4193,-2.4192,-2.4192,-2.3888,-2.3976,-2.3959,-2.4051,-2.4052,-2.4112,-2.4129,-2.4148,-2.4159,-2.423,-2.4268,-2.426,-2.4266,-2.4308,-2.4348,-2.4344,-2.4364,-2.4407,-2.4395,-2.4215,-2.419,-2.4165,-2.4143,-2.4411,-2.4411,-2.4584,-2.4586,-2.4587]},{"header":{"parameterUnit":"m.s-1","parameterCategory":1,"la1":30.2991,"la2":30.254,"lo1":-89.0895,"lo2":-89.0444,"dy":0.0017,"dx":0.0017,"nx":28,"ny":28,"refTime":"2024-12-31T03:00:00:Z","depth":0,"parameterNumber":3,"parameterNumberName":"V-component_of_WINDS"},"data":[0,0,0,0,0,0,0,0,0,0,0,0,0,0,0,0,0,0,0,0,0,0,0,0,0,0,0,0,0,0,0,0,0,0,0,0,0,0,0,0,0,0,0,0,0,0,0,0,0,0,0,0,0,0,0,0,0,0,-3.2836,-3.2837,0,-3.2912,-3.2913,-3.2914,-3.2861,-3.2859,-3.2856,-3.2854,-3.2929,-3.2934,-3.2938,0,0,0,0,0,0,0,0,0,0,0,0,0,-3.2643,-3.2646,-3.2836,-3.2837,-3.2838,-3.2912,-3.2913,-3.2914,-3.2861,-3.2859,-3.2856,-3.2853,-3.2928,-3.2933,-3.2938,0,0,0,0,0,0,0,0,0,0,0,0,0,-3.2723,-3.2648,-3.2836,-3.2821,-3.282,-3.2912,-3.2913,-3.2914,-3.2862,-3.2858,-3.2855,-3.2852,-3.2926,-3.2933,-3.2939,-3.3049,0,0,-3.2958,-3.2961,0,0,0,0,0,0,0,0,-3.2719,-3.2731,-3.2822,-3.2822,-3.2821,-3.2873,-3.2872,-3.2959,-3.2863,-3.2846,-3.2854,-3.285,-3.2914,-3.2921,-3.2943,-3.3052,-3.3056,-3.2959,-3.2963,-3.2965,-3.2967,0,0,0,0,0,0,0,-3.2713,-3.2727,-3.2866,-3.2823,-3.2823,-3.2809,-3.2817,-3.2889,-3.2899,-3.2847,-3.2844,-3.2853,-3.2913,-3.2937,-3.2944,-3.3057,-3.2959,-3.2964,-3.2968,-3.297,-3.3259,-3.3263,0,0,0,0,0,0,-3.2709,-3.2723,-3.2864,-3.2868,-3.276,-3.2815,-3.2824,-3.286,-3.2898,-3.29,-3.2856,-3.2851,-3.2928,-3.2937,-3.2946,-3.3077,-3.2965,-3.2971,-3.2975,-3.3255,-3.326,-3.3264,0,0,0,0,0,0,-3.2706,-3.2723,-3.286,-3.2795,-3.2811,-3.2823,-3.2864,-3.2864,-3.2888,-3.2905,-3.2906,-3.2879,-3.2925,-3.2938,-3.3024,-3.3079,-3.2974,-3.298,-3.3251,-3.3257,-3.3262,-3.334,0,0,0,0,0,0,-3.27,-3.2721,-3.2764,-3.2796,-3.2815,-3.2938,-3.2867,-3.2868,-3.2899,-3.2892,-3.2927,-3.2929,-3.2923,-3.3015,-3.303,-3.3086,-3.2985,-3.3246,-3.3253,-3.326,-3.3333,-3.3348,-3.3361,0,0,0,0,0,-3.2693,-3.2783,-3.2767,-3.2784,-3.2869,-3.2941,-3.2952,-3.2944,-3.2904,-3.2946,-3.2957,-3.2928,-3.3071,-3.3024,-3.3041,-3.3099,-3.3242,-3.3251,-3.326,-3.3326,-3.3345,-3.3361,0,0,0,0,0,0,-3.2756,-3.2787,-3.2769,-3.2871,-3.2904,-3.2932,-3.2985,-3.2964,-3.3009,-3.3,-3.2989,-3.2997,-3.3087,-3.3102,-3.3049,-3.3207,-3.315,-3.3162,-3.3195,-3.3212,-3.3226,-3.3221,-3.299,0,0,0,0,0,-3.2782,-3.284,-3.2862,-3.295,-3.2968,-3.2974,-3.3005,-3.2997,-3.303,-3.3043,-3.306,-3.3093,-3.3145,-3.3179,-3.3228,-3.3334,-3.334,-3.3383,-3.3397,-3.3408,-3.3419,-3.3476,-3.3495,-3.3293,-3.3293,-3.3293,0,0,-3.2836,-3.286,-3.2896,-3.2964,-3.2988,-3.3046,-3.2986,-3.305,-3.3094,-3.3053,-3.3135,-3.3149,-3.3184,-3.3281,-3.3324,-3.3296,-3.3476,-3.342,-3.3429,-3.3433,-3.3487,-3.3506,-3.3523,-3.3299,-3.3298,-3.3297,0,0,-3.2964,-3.2988,-3.3064,-3.309,-3.3127,-3.3131,-3.3149,-3.318,-3.3188,-3.3271,-3.3241,-3.3291,-3.3382,-3.3408,-3.3433,-3.3571,-3.3545,-3.3587,-3.366,-3.3716,-3.3732,-3.3746,-3.3794,-3.3812,-3.3597,-3.3598,-3.3598,0,-3.3026,-3.3114,-3.3105,-3.3172,-3.3202,-3.3169,-3.3245,-3.327,-3.3321,-3.3342,-3.331,-3.3422,-3.3443,-3.3545,-3.3579,-3.3601,-3.362,-3.3583,-3.373,-3.3744,-3.3757,-3.3803,-3.3822,-3.3602,-3.3602,-3.3601,-3.3601,0,-3.3188,-3.325,-3.3306,-3.3358,-3.3394,-3.3465,-3.3466,-3.3504,-3.3492,-3.3498,-3.3582,-3.3607,-3.366,-3.3683,-3.3672,-3.3784,-3.3765,-3.3732,-3.3674,-3.3781,-3.3824,-3.3842,-3.3609,-3.3608,-3.3606,-3.3605,0,0,-3.3359,-3.3404,-3.3425,-3.3448,-3.3487,-3.3533,-3.3602,-3.3655,-3.3687,-3.3724,-3.3781,-3.3858,-3.3827,-3.3856,-3.3847,-3.3896,-3.4002,-3.3856,-3.3857,-3.3882,-3.4126,-3.415,-3.4171,-3.3985,-3.3989,-3.3991,-3.4123,0,-3.3489,-3.3611,-3.3604,-3.3718,-3.3774,-3.3742,-3.3802,-3.3832,-3.384,-3.3887,-3.3895,-3.395,-3.3906,-3.3923,-3.3969,-3.398,-3.4051,-3.397,-3.4038,-3.404,-3.403,-3.4194,-3.422,-3.4343,-3.4139,-3.4142,-3.4144,0,-3.3657,-3.37,-3.382,-3.385,-3.3873,-3.3927,-3.3974,-3.4021,-3.4054,-3.4056,-3.4088,-3.4071,-3.4139,-3.408,-3.4174,-3.4119,-3.4146,-3.4155,-3.416,-3.4166,-3.4099,-3.4204,-3.4382,-3.44,-3.4171,-3.4169,-3.4167,0,-3.3769,-3.3857,-3.3939,-3.396,-3.3997,-3.4036,-3.4053,-3.4082,-3.4114,-3.4155,-3.4175,-3.4223,-3.425,-3.4287,-3.4283,-3.424,-3.4378,-3.4318,-3.4381,-3.4381,-3.4412,-3.441,-3.4597,-3.443,-3.4429,-3.4429,-3.4429,0,-3.3915,-3.3989,-3.399,-3.4041,-3.4123,-3.4114,-3.4195,-3.4208,-3.4234,-3.4286,-3.4261,-3.431,-3.4302,-3.4351,-3.4348,-3.4426,-3.4438,-3.4441,-3.444,-3.4444,-3.4443,-3.4461,-3.4453,-3.4434,-3.4433,-3.4432,-3.4431,0,-3.4054,-3.4058,-3.4146,-3.4174,-3.4182,-3.4242,-3.4265,-3.4313,-3.4318,-3.4384,-3.4399,-3.4407,-3.4463,-3.4463,-3.4527,-3.4525,-3.4621,-3.4609,-3.461,-3.4608,-3.467,-3.4664,-3.4875,-3.4902,-3.4718,-3.472,-3.4721,0,-3.4147,-3.4204,-3.4238,-3.4271,-3.4291,-3.4345,-3.4377,-3.4371,-3.4405,-3.4446,-3.4489,-3.4543,-3.4586,-3.4677,-3.4688,-3.4736,-3.4726,-3.4796,-3.4733,-3.4735,-3.4726,-3.4723,-3.4728,-3.4808,-3.4811,-3.4812,-3.4814,0,-3.4312,-3.4311,-3.4359,-3.4408,-3.4447,-3.4485,-3.452,-3.4548,-3.4545,-3.4585,-3.4643,-3.4676,-3.4741,-3.4795,-3.4842,-3.4858,-3.4835,-3.4833,-3.485,-3.4855,-3.4853,-3.4855,-3.4644,-3.4829,-3.4827,-3.4826,-3.4825,-3.4825,-3.443,-3.4479,-3.4511,-3.4565,-3.459,-3.4623,-3.467,-3.4681,-3.4729,-3.4782,-3.4775,-3.4839,-3.4869,-3.4929,-3.495,-3.4999,-3.4974,-3.4999,-3.5005,-3.5012,-3.5018,-3.4845,-3.5007,-3.5007,-3.5007,-3.5006,-3.5006,0,-3.4593,-3.4612,-3.4662,-3.4712,-3.4754,-3.473,-3.4767,-3.4804,-3.4861,-3.4891,-3.4934,-3.5,-3.5052,-3.5067,-3.5116,-3.5153,-3.5143,-3.5166,-3.5163,-3.5167,-3.5038,-3.5018,-3.5173,-3.5172,-3.5172,-3.5172,-3.5172,-3.5172,-3.4683,-3.4764,-3.4766,-3.4859,-3.4877,-3.494,-3.4963,-3.4993,-3.5018,-3.5092,-3.5135,-3.5145,-3.5169,-3.522,-3.5266,-3.5269,-3.5288,-3.5315,-3.5314,-3.5193,-3.5176,-3.516,-3.5142,-3.5319,-3.532,-3.5439,-3.544,-3.5441]}]]